Weather History for North Padre Island, TX

Change the Weather History Date:

Saturday, December 10, 2011

  Actual Average Record
Temperature  
Mean Temperature 66 °F -  
Max Temperature 69 °F - - ()
Min Temperature 62 °F - - ()
Growing Degree Days 16 (Base 50)    
Moisture  
Dew Point 59 °F    
Average Humidity 76    
Maximum Humidity 83    
Minimum Humidity 64    
Precipitation  
Precipitation 0.00 in - - ()
Sea Level Pressure  
Sea Level Pressure 30.25 in    
Wind  
Wind Speed 30 mph (NE)    
Max Wind Speed 37 mph    
Max Gust Speed 46 mph    
Visibility 6 miles    
Events      
T = Trace of Precipitation, MM = Missing Value Source: NWS Daily Summary

Daily Weather History Graph

Daily Weather History Graph

Search for Another Location

Airport:

Trip Planner

Search our weather history database for the weather conditions in past years. The results will help you decide how hot, cold, wet, or windy it might be!

Date:

Astronomy

Dec. 10, 2011 Rise Set
Actual Time 7:05 AM CST 5:35 PM CST
Civil Twilight 6:40 AM CST 6:00 PM CST
Nautical Twilight 6:11 AM CST 6:29 PM CST
Astronomical Twilight 5:43 AM CST 6:57 PM CST
Moon 5:51 PM CST (12/10) 7:05 AM CST (12/10)
Length of Visible Light 11h 20m
Length of Day
10h 29m
Full, 100% of the Moon is Illuminated
Dec 10
Full
Dec 17
Last Quarter
Dec 24
New
Jan 1
First Quarter
Jan 9
Full

Hourly Weather History & Observations

Time (CST) Temp. Dew Point Humidity Pressure Visibility Wind Dir Wind Speed Gust Speed Precip Events Conditions
12:15 AM 68.0 °F 62.6 °F 83% 30.22 in 10.0 mi NE 21.9 mph - N/A   Overcast
12:35 AM 68.0 °F 62.6 °F 83% 30.22 in 9.0 mi NE 23.0 mph - N/A   Overcast
12:55 AM 68.0 °F 62.6 °F 83% 30.22 in 9.0 mi NE 25.3 mph - N/A   Overcast
1:15 AM 68.0 °F 62.6 °F 83% 30.21 in 9.0 mi NE 26.5 mph - N/A   Overcast
1:35 AM 68.0 °F 62.6 °F 83% 30.22 in 8.0 mi NE 26.5 mph - N/A   Overcast
1:55 AM 68.0 °F 62.6 °F 83% 30.21 in 10.0 mi NE 27.6 mph - N/A   Overcast
2:15 AM 68.0 °F 62.6 °F 83% 30.20 in 10.0 mi NE 29.9 mph - N/A   Overcast
2:35 AM 68.0 °F 62.6 °F 83% 30.21 in 9.0 mi NE 27.6 mph - N/A   Overcast
2:55 AM 68.0 °F 62.6 °F 83% 30.20 in 8.0 mi NE 27.6 mph - N/A   Overcast
3:15 AM 68.0 °F 62.6 °F 83% 30.20 in 10.0 mi NE 28.8 mph - N/A   Overcast
3:35 AM 68.0 °F 62.6 °F 83% 30.20 in 8.0 mi NE 36.8 mph - N/A   Overcast
3:55 AM 68.0 °F 62.6 °F 83% 30.21 in 7.0 mi NE 36.8 mph - N/A   Overcast
4:15 AM 68.0 °F 62.6 °F 83% 30.21 in 8.0 mi NE 34.5 mph - N/A   Overcast
4:35 AM 68.0 °F 62.6 °F 83% 30.21 in 8.0 mi NE 35.7 mph - N/A   Overcast
4:55 AM 68.0 °F 62.6 °F 83% 30.21 in 8.0 mi NE 33.4 mph - N/A   Overcast
5:15 AM 68.0 °F 62.6 °F 83% 30.23 in 8.0 mi NE 31.1 mph - N/A   Overcast
5:35 AM 68.0 °F 62.6 °F 83% 30.22 in 8.0 mi NE 34.5 mph - N/A   Overcast
5:55 AM 66.2 °F 60.8 °F 83% 30.23 in 8.0 mi NE 32.2 mph 38.0 mph N/A   Overcast
6:15 AM 68.0 °F 60.8 °F 78% 30.23 in 8.0 mi NE 32.2 mph 38.0 mph N/A   Mostly Cloudy
6:35 AM 68.0 °F 62.6 °F 83% 30.23 in 8.0 mi NE 33.4 mph - N/A   Overcast
6:55 AM 68.0 °F 60.8 °F 78% 30.24 in 8.0 mi NE 32.2 mph - N/A   Overcast
7:15 AM 68.0 °F 60.8 °F 78% 30.25 in 8.0 mi NE 34.5 mph - N/A   Overcast
7:55 AM 68.0 °F 60.8 °F 78% 30.26 in 6.0 mi NE 34.5 mph - N/A   Haze
8:15 AM 69.8 °F 59.0 °F 68% 30.27 in 6.0 mi NE 31.1 mph 39.1 mph N/A   Haze
8:35 AM 69.8 °F 59.0 °F 68% 30.28 in 5.0 mi NE 28.8 mph - N/A   Haze
8:55 AM 69.8 °F 59.0 °F 68% 30.29 in 2.0 mi NE 27.6 mph - N/A   Haze
9:15 AM 68.0 °F 59.0 °F 73% 30.28 in 2.5 mi NE 32.2 mph - N/A   Haze
9:35 AM 68.0 °F 59.0 °F 73% 30.28 in 2.0 mi NE 33.4 mph - N/A   Haze
9:55 AM 68.0 °F 59.0 °F 73% 30.29 in 6.0 mi NE 31.1 mph 39.1 mph N/A   Haze
10:15 AM 68.0 °F 59.0 °F 73% 30.29 in 7.0 mi NE 34.5 mph - N/A   Overcast
10:35 AM 68.0 °F 59.0 °F 73% 30.28 in 6.0 mi NE 36.8 mph 46.0 mph N/A   Haze
10:55 AM 69.8 °F 57.2 °F 64% 30.30 in 7.0 mi NE 35.7 mph - N/A   Overcast
11:15 AM 68.0 °F 57.2 °F 68% 30.29 in 7.0 mi NE 33.4 mph - N/A   Overcast
11:35 AM 68.0 °F 59.0 °F 73% 30.28 in 5.0 mi NE 36.8 mph - N/A   Haze
11:55 AM 68.0 °F 57.2 °F 68% 30.28 in 7.0 mi NE 34.5 mph - N/A   Overcast
12:15 PM 68.0 °F 57.2 °F 68% 30.26 in 7.0 mi NE 34.5 mph 41.4 mph N/A   Overcast
12:35 PM 68.0 °F 57.2 °F 68% 30.26 in 6.0 mi NE 34.5 mph - N/A   Haze
12:55 PM 68.0 °F 57.2 °F 68% 30.26 in 7.0 mi NE 31.1 mph - N/A   Overcast
1:15 PM 68.0 °F 55.4 °F 64% 30.26 in 7.0 mi NE 28.8 mph - N/A   Overcast
1:35 PM 68.0 °F 57.2 °F 68% 30.25 in 5.0 mi NE 29.9 mph 36.8 mph N/A   Haze
1:55 PM 66.2 °F 57.2 °F 73% 30.25 in 5.0 mi NE 31.1 mph 36.8 mph N/A   Haze
2:15 PM 66.2 °F 57.2 °F 73% 30.25 in 1.2 mi NE 31.1 mph - N/A   Haze
2:35 PM 64.4 °F 57.2 °F 77% 30.26 in 1.0 mi NE 33.4 mph - N/A   Haze
2:55 PM 64.4 °F 57.2 °F 77% 30.25 in 3.0 mi NE 33.4 mph - N/A   Haze
3:15 PM 64.4 °F 57.2 °F 77% 30.25 in 2.0 mi NE 33.4 mph - N/A   Haze
3:35 PM 64.4 °F 57.2 °F 77% 30.25 in 5.0 mi NE 34.5 mph 41.4 mph N/A   Haze
3:55 PM 64.4 °F 57.2 °F 77% 30.26 in 5.0 mi NE 33.4 mph - N/A   Haze
4:15 PM 64.4 °F 55.4 °F 73% 30.27 in 8.0 mi NE 32.2 mph - N/A   Mostly Cloudy
4:35 PM 64.4 °F 55.4 °F 73% 30.27 in 2.0 mi NE 29.9 mph - N/A   Haze
4:55 PM 64.4 °F 57.2 °F 77% 30.27 in 1.2 mi NE 31.1 mph - N/A   Haze
5:15 PM 62.6 °F 57.2 °F 82% 30.27 in 1.2 mi NNE 25.3 mph 35.7 mph N/A   Haze
5:35 PM 62.6 °F 55.4 °F 77% 30.27 in 1.5 mi NNE 32.2 mph - N/A   Haze
5:55 PM 62.6 °F 55.4 °F 77% 30.29 in 3.0 mi NE 28.8 mph 36.8 mph N/A   Haze
6:15 PM 62.6 °F 53.6 °F 72% 30.30 in 2.0 mi NE 28.8 mph 34.5 mph N/A   Haze
6:35 PM 62.6 °F 55.4 °F 77% 30.29 in 2.0 mi NNE 29.9 mph - N/A   Haze
6:55 PM 62.6 °F 55.4 °F 77% 30.30 in 2.5 mi NE 28.8 mph - N/A   Haze
7:15 PM 62.6 °F 55.4 °F 77% 30.30 in 2.5 mi NE 32.2 mph - N/A   Haze
7:35 PM 62.6 °F 55.4 °F 77% 30.29 in 4.0 mi NE 31.1 mph - N/A   Haze
7:55 PM 62.6 °F 53.6 °F 72% 30.29 in 4.0 mi NE 31.1 mph - N/A   Haze
8:15 PM 62.6 °F 53.6 °F 72% 30.32 in 6.0 mi NE 23.0 mph 33.4 mph N/A   Haze
8:35 PM 62.6 °F 53.6 °F 72% 30.31 in 4.0 mi NNE 24.2 mph 31.1 mph N/A   Haze
8:55 PM 62.6 °F 53.6 °F 72% 30.32 in 4.0 mi NNE 26.5 mph - N/A   Haze
9:15 PM 62.6 °F 53.6 °F 72% 30.31 in 5.0 mi NE 26.5 mph 32.2 mph N/A   Haze
9:30 PM 62.6 °F 55.4 °F 77% 30.31 in 3.0 mi NE 28.8 mph - N/A   Haze
9:55 PM 62.6 °F 55.4 °F 77% 30.30 in 2.5 mi NE 27.6 mph - N/A   Haze
10:15 PM 62.6 °F 55.4 °F 77% 30.30 in 4.0 mi NE 31.1 mph - N/A   Haze
10:35 PM 62.6 °F 55.4 °F 77% 30.29 in 7.0 mi NE 32.2 mph - N/A   Mostly Cloudy
10:55 PM 62.6 °F 55.4 °F 77% 30.29 in 4.0 mi NE 28.8 mph 36.8 mph N/A   Haze
11:15 PM 64.4 °F 55.4 °F 73% 30.28 in 10.0 mi NE 28.8 mph 36.8 mph N/A   Mostly Cloudy
11:35 PM 64.4 °F 53.6 °F 68% 30.28 in 10.0 mi NE 33.4 mph - N/A   Mostly Cloudy
11:55 PM 64.4 °F 51.8 °F 64% 30.29 in 10.0 mi NE 25.3 mph 32.2 mph N/A   Overcast